Location: Beaufort Park
(39.1418°N, 76.9433°W)
Time: 23:20:33
(UTC+00:00)

Meteor 2-21 Rocket - Pass Details

Date: 29 October 2020
Orbit: 935 x 968 km, 82.5° (Epoch: 03 December)

Event Time Altitude Azimuth Distance (km) Brightness Sun altitude
Rises 22:28:04 0° 354° (N) 3,649 7.4 -4.3°
Reaches altitude 10° 22:30:37 10° 357° (N) 2,695 6.7 -4.7°
Maximum altitude 22:36:45 70° 81° (E) 1,009 4.4 -5.9°
Drops below altitude 10° 22:42:49 10° 165° (SSE) 2,654 6.8 -7.0°
Sets 22:45:17 0° 168° (SSE) 3,591 7.5 -7.5°
